Weather History for Grant County, OR

Change the Weather History Date:

Thursday, December 6, 2012

  Actual Average (KBNO) Record (KBNO)
Temperature  
Mean Temperature 34 °F 26 °F  
Max Temperature 37 °F 36 °F 55 °F (1962)
Min Temperature 30 °F 15 °F -4 °F (1992)
Degree Days  
Heating Degree Days 32 40  
Month to date heating degree days 233  
Since 1 July heating degree days 2234  
Cooling Degree Days 0 0  
Month to date cooling degree days 0  
Year to date cooling degree days 215  
Moisture  
Dew Point 28 °F    
Average Humidity 81    
Maximum Humidity 100    
Minimum Humidity 65    
Precipitation  
Precipitation 0.00 in 0.05 in 0.51 in (1950)
Month to date precipitation 0.30  
Year to date precipitation 9.67  
Sea Level Pressure  
Sea Level Pressure 30.10 in    
Wind  
Wind Speed 5 mph (WSW)    
Max Wind Speed 14 mph    
Max Gust Speed -    
Visibility 10 miles    
Events      
T = Trace of Precipitation, MM = Missing Value Source: NWS Daily Summary

Daily Weather History Graph

Daily Weather History Graph

Search for Another Location

Airport:

Trip Planner

Search our weather history database for the weather conditions in past years. The results will help you decide how hot, cold, wet, or windy it might be!

Date:

Astronomy

Dec. 06, 2012 Rise Set
Actual Time 7:17 AM PST 4:16 PM PST
Civil Twilight 6:44 AM PST 4:49 PM PST
Nautical Twilight 6:08 AM PST 5:25 PM PST
Astronomical Twilight 5:33 AM PST 6:01 PM PST
Moon No Moon Rise 11:59 AM PST (12/6)
Length of Visible Light 10h 04m
Length of Day
8h 58m
Waning Gibbous, 48% of the Moon is Illuminated
Dec 6
Waning Gibbous
Dec 13
New
Dec 19
First Quarter
Dec 28
Full
Jan 4
Last Quarter

Hourly Weather History & Observations

Time (PST) Temp. Windchill Dew Point Humidity Pressure Visibility Wind Dir Wind Speed Gust Speed Precip Events Conditions
12:15 AM 35.6 °F 29.9 °F 32.0 °F 87% 30.14 in 10.0 mi WSW 6.9 mph - N/A   Overcast
12:35 AM 35.6 °F 30.7 °F 32.0 °F 87% 30.12 in 10.0 mi WSW 5.8 mph - N/A   Overcast
12:55 AM 33.8 °F 27.7 °F 32.0 °F 93% 30.12 in 10.0 mi West 6.9 mph - N/A   Overcast
1:15 AM 35.6 °F 30.7 °F 32.0 °F 87% 30.14 in 10.0 mi West 5.8 mph - N/A   Overcast
5:35 AM 32.0 °F - 30.2 °F 93% 30.10 in 10.0 mi Calm Calm - N/A   Mostly Cloudy
5:55 AM 32.0 °F - 30.2 °F 93% 30.10 in 10.0 mi Calm Calm - N/A   Overcast
6:15 AM 32.0 °F - 30.2 °F 93% 30.10 in 10.0 mi Calm Calm - N/A   Overcast
6:35 AM 32.0 °F - 32.0 °F 100% 30.10 in 10.0 mi Calm Calm - N/A   Overcast
6:55 AM 32.0 °F - 32.0 °F 100% 30.10 in 10.0 mi Calm Calm - N/A   Overcast
7:15 AM 32.0 °F - 30.2 °F 93% 30.10 in 10.0 mi Calm Calm - N/A   Mostly Cloudy
7:35 AM 32.0 °F - 30.2 °F 93% 30.10 in 10.0 mi Calm Calm - N/A   Mostly Cloudy
7:55 AM 32.0 °F - 32.0 °F 100% 30.11 in 10.0 mi Calm Calm - N/A   Overcast
8:15 AM 32.0 °F - 32.0 °F 100% 30.11 in 10.0 mi Calm Calm - N/A   Overcast
8:35 AM 33.8 °F - 32.0 °F 93% 30.11 in 10.0 mi Calm Calm - N/A   Overcast
8:55 AM 33.8 °F - 32.0 °F 93% 30.10 in 10.0 mi Calm Calm - N/A   Overcast
9:15 AM 33.8 °F 29.6 °F 32.0 °F 93% 30.11 in 10.0 mi WNW 4.6 mph - N/A   Overcast
9:35 AM 33.8 °F 28.6 °F 32.0 °F 93% 30.12 in 10.0 mi WNW 5.8 mph - N/A   Overcast
9:55 AM 33.8 °F 27.7 °F 32.0 °F 93% 30.12 in 10.0 mi West 6.9 mph - N/A   Overcast
10:15 AM 35.6 °F 29.2 °F 32.0 °F 87% 30.12 in 10.0 mi West 8.1 mph - N/A   Overcast
10:35 AM 35.6 °F 29.9 °F 30.2 °F 81% 30.12 in 10.0 mi WSW 6.9 mph - N/A   Overcast
10:55 AM 35.6 °F 29.9 °F 30.2 °F 81% 30.11 in 10.0 mi SW 6.9 mph - N/A   Mostly Cloudy
11:15 AM 35.6 °F 29.2 °F 30.2 °F 81% 30.11 in 10.0 mi West 8.1 mph - N/A   Clear
11:35 AM 35.6 °F 28.0 °F 30.2 °F 81% 30.10 in 10.0 mi WSW 10.4 mph - N/A   Scattered Clouds
11:55 AM 37.4 °F 28.9 °F 30.2 °F 75% 30.10 in 10.0 mi West 13.8 mph - N/A   Mostly Cloudy
12:15 PM 37.4 °F 30.8 °F 30.2 °F 75% 30.10 in 10.0 mi West 9.2 mph - N/A   Mostly Cloudy
12:35 PM 37.4 °F 29.8 °F 28.4 °F 70% 30.10 in 10.0 mi West 11.5 mph - N/A   Mostly Cloudy
12:55 PM 37.4 °F 31.4 °F 28.4 °F 70% 30.09 in 10.0 mi WSW 8.1 mph - N/A   Mostly Cloudy
1:15 PM 37.4 °F 30.3 °F 28.4 °F 70% 30.08 in 10.0 mi WSW 10.4 mph - N/A   Scattered Clouds
1:35 PM 37.4 °F 30.8 °F 26.6 °F 65% 30.07 in 10.0 mi West 9.2 mph - N/A   Clear
1:55 PM 37.4 °F 30.8 °F 26.6 °F 65% 30.06 in 10.0 mi West 9.2 mph - N/A   Clear
2:15 PM 37.4 °F 30.3 °F 26.6 °F 65% 30.07 in 10.0 mi West 10.4 mph - N/A   Clear
2:35 PM 37.4 °F 30.3 °F 26.6 °F 65% 30.07 in 10.0 mi West 10.4 mph - N/A   Clear
2:55 PM 37.4 °F 30.3 °F 26.6 °F 65% 30.07 in 10.0 mi WSW 10.4 mph - N/A   Clear
3:15 PM 35.6 °F 30.7 °F 26.6 °F 70% 30.07 in 10.0 mi WSW 5.8 mph - N/A   Clear
3:35 PM 35.6 °F 29.9 °F 26.6 °F 70% 30.07 in 10.0 mi WSW 6.9 mph - N/A   Clear
3:55 PM 35.6 °F 32.8 °F 26.6 °F 70% 30.07 in 10.0 mi West 3.5 mph - N/A   Clear
4:15 PM 35.6 °F 31.7 °F 26.6 °F 70% 30.08 in 10.0 mi West 4.6 mph - N/A   Mostly Cloudy
4:35 PM 33.8 °F - 26.6 °F 75% 30.08 in 10.0 mi Calm Calm - N/A   Scattered Clouds
4:55 PM 33.8 °F 30.8 °F 24.8 °F 70% 30.08 in 10.0 mi SW 3.5 mph - N/A   Scattered Clouds
5:15 PM 33.8 °F 30.8 °F 24.8 °F 70% 30.09 in 10.0 mi SW 3.5 mph - N/A   Clear
5:35 PM 33.8 °F 30.8 °F 26.6 °F 75% 30.09 in 10.0 mi SSW 3.5 mph - N/A   Scattered Clouds
5:55 PM 32.0 °F - 24.8 °F 75% 30.09 in 10.0 mi Calm Calm - N/A   Scattered Clouds
6:15 PM 33.8 °F - 26.6 °F 75% 30.09 in 10.0 mi Calm Calm - N/A   Clear
6:35 PM 33.8 °F - 24.8 °F 70% 30.09 in 10.0 mi Calm Calm - N/A   Clear
6:55 PM 33.8 °F - 24.8 °F 70% 30.10 in 10.0 mi Calm Calm - N/A   Clear
7:15 PM 32.0 °F - 24.8 °F 75% 30.11 in 10.0 mi Calm Calm - N/A   Scattered Clouds
7:35 PM 32.0 °F - 26.6 °F 80% 30.11 in 10.0 mi Calm Calm - N/A   Mostly Cloudy
7:55 PM 32.0 °F - 26.6 °F 80% 30.12 in 10.0 mi Calm Calm - N/A   Overcast
8:15 PM 32.0 °F 27.5 °F 26.6 °F 80% 30.12 in 10.0 mi WSW 4.6 mph - N/A   Overcast
8:35 PM 32.0 °F 28.7 °F 26.6 °F 80% 30.11 in 10.0 mi NE 3.5 mph - N/A   Mostly Cloudy
8:55 PM 30.2 °F - 26.6 °F 86% 30.12 in 10.0 mi Calm Calm - N/A   Scattered Clouds
9:15 PM 32.0 °F 27.5 °F 26.6 °F 80% 30.13 in 10.0 mi SE 4.6 mph - N/A   Clear
9:35 PM 30.2 °F 25.4 °F 26.6 °F 86% 30.14 in 10.0 mi East 4.6 mph - N/A   Scattered Clouds
9:55 PM 30.2 °F 24.3 °F 26.6 °F 86% 30.12 in 10.0 mi SE 5.8 mph - N/A   Scattered Clouds
10:15 PM 30.2 °F - 26.6 °F 86% 30.12 in 10.0 mi Calm Calm - N/A   Clear
10:35 PM 32.0 °F 25.6 °F 26.6 °F 80% 30.12 in 10.0 mi SE 6.9 mph - N/A   Scattered Clouds
10:55 PM 32.0 °F 25.6 °F 26.6 °F 80% 30.13 in 10.0 mi SE 6.9 mph - N/A   Mostly Cloudy
11:15 PM 32.0 °F 25.6 °F 26.6 °F 80% 30.14 in 10.0 mi SSW 6.9 mph - N/A   Overcast
11:35 PM 33.8 °F 25.8 °F 26.6 °F 75% 30.14 in 10.0 mi South 10.4 mph - N/A   Overcast
11:55 PM 33.8 °F 27.0 °F 26.6 °F 75% 30.12 in 10.0 mi SSW 8.1 mph - N/A   Overcast